contact: severine.martini@mio.osupytheas.fr, dominique.lefevre@mio.osupytheas.fr
Project:EMSO Ligure-ouest http://www.emso-fr.org/EMSO-France
Sensor Microcat Sea-Bird SBE37 SMP,  Serial 57510 
DOI : "https://doi.org/10.17882/97948" 
Title:EMSO Ligure Ouest : Data Bathybot capteur Microcat - deploiement 2023-04-28
Datetime,Profondeur,Latitude,Longitude,Temperature,Conductivite,Pression,Salinite
time,m,degree_north,degree_east,degree_C,S/m,db,PSU 
2023-11-09T00:00:50,2420,42.8014,5.9826,13.2979,4.35513,2453.604,36.1949
2023-11-09T00:03:49,2420,42.8014,5.9826,13.2976,4.35520,2453.582,36.1958
2023-11-09T00:06:49,2420,42.8014,5.9826,13.2984,4.35545,2453.559,36.1974
2023-11-09T00:09:49,2420,42.8014,5.9826,13.2985,4.35575,2453.582,36.2002
2023-11-09T00:12:49,2420,42.8014,5.9826,13.2976,4.35578,2453.559,36.2013
2023-11-09T00:15:49,2420,42.8014,5.9826,13.2978,4.35502,2453.582,36.1940
2023-11-09T00:18:49,2420,42.8014,5.9826,13.2980,4.35526,2453.582,36.1960
2023-11-09T00:21:49,2420,42.8014,5.9826,13.2978,4.35492,2453.544,36.1931
2023-11-09T00:24:49,2420,42.8014,5.9826,13.2989,4.35522,2453.559,36.1948
2023-11-09T00:27:49,2420,42.8014,5.9826,13.2979,4.35538,2453.559,36.1973
2023-11-09T00:30:49,2420,42.8014,5.9826,13.2985,4.35488,2453.590,36.1920
2023-11-09T00:33:49,2420,42.8014,5.9826,13.2978,4.35568,2453.582,36.2002
2023-11-09T00:36:49,2420,42.8014,5.9826,13.2977,4.35553,2453.582,36.1989
2023-11-09T00:39:49,2420,42.8014,5.9826,13.2985,4.35531,2453.604,36.1960
2023-11-09T00:42:49,2420,42.8014,5.9826,13.2971,4.35481,2453.582,36.1927
2023-11-09T00:45:49,2420,42.8014,5.9826,13.2993,4.35498,2453.582,36.1922
2023-11-09T00:48:49,2420,42.8014,5.9826,13.2988,4.35531,2453.590,36.1958
2023-11-09T00:51:49,2420,42.8014,5.9826,13.2984,4.35546,2453.604,36.1975
2023-11-09T00:54:49,2420,42.8014,5.9826,13.2983,4.35471,2453.604,36.1906
2023-11-09T00:57:49,2420,42.8014,5.9826,13.2981,4.35587,2453.582,36.2017
2023-11-09T01:00:49,2420,42.8014,5.9826,13.2979,4.35504,2453.619,36.1941
2023-11-09T01:03:49,2420,42.8014,5.9826,13.2981,4.35557,2453.604,36.1989
2023-11-09T01:06:49,2420,42.8014,5.9826,13.2990,4.35528,2453.604,36.1953
2023-11-09T01:09:49,2420,42.8014,5.9826,13.2984,4.35565,2453.590,36.1993
2023-11-09T01:12:49,2420,42.8014,5.9826,13.2980,4.35540,2453.604,36.1974
2023-11-09T01:15:49,2420,42.8014,5.9826,13.2993,4.35539,2453.627,36.1960
2023-11-09T01:18:49,2420,42.8014,5.9826,13.2984,4.35505,2453.590,36.1937
2023-11-09T01:21:49,2420,42.8014,5.9826,13.2988,4.35609,2453.604,36.2030
2023-11-09T01:24:49,2420,42.8014,5.9826,13.2978,4.35556,2453.604,36.1991
2023-11-09T01:27:49,2420,42.8014,5.9826,13.2978,4.35495,2453.627,36.1933
2023-11-09T01:30:49,2420,42.8014,5.9826,13.2979,4.35599,2453.582,36.2029
2023-11-09T01:33:49,2420,42.8014,5.9826,13.2983,4.35578,2453.627,36.2006
2023-11-09T01:36:49,2420,42.8014,5.9826,13.2985,4.35555,2453.627,36.1983
2023-11-09T01:39:49,2420,42.8014,5.9826,13.2982,4.35544,2453.604,36.1975
2023-11-09T01:42:49,2420,42.8014,5.9826,13.2984,4.35542,2453.604,36.1971
2023-11-09T01:45:49,2420,42.8014,5.9826,13.2990,4.35538,2453.641,36.1962
2023-11-09T01:48:49,2420,42.8014,5.9826,13.2990,4.35540,2453.627,36.1964
2023-11-09T01:51:49,2420,42.8014,5.9826,13.2982,4.35521,2453.604,36.1954
2023-11-09T01:54:49,2420,42.8014,5.9826,13.2985,4.35486,2453.627,36.1919
2023-11-09T01:57:49,2420,42.8014,5.9826,13.2991,4.35522,2453.627,36.1947
2023-11-09T02:00:50,2420,42.8014,5.9826,13.2980,4.35598,2453.627,36.2028
2023-11-09T02:03:49,2420,42.8014,5.9826,13.2988,4.35539,2453.627,36.1964
2023-11-09T02:06:49,2420,42.8014,5.9826,13.2984,4.35624,2453.627,36.2048
2023-11-09T02:09:49,2420,42.8014,5.9826,13.2982,4.35544,2453.649,36.1975
2023-11-09T02:12:49,2420,42.8014,5.9826,13.2986,4.35500,2453.627,36.1930
2023-11-09T02:15:49,2420,42.8014,5.9826,13.2982,4.35546,2453.627,36.1977
2023-11-09T02:18:49,2420,42.8014,5.9826,13.2985,4.35558,2453.649,36.1986
2023-11-09T02:21:49,2420,42.8014,5.9826,13.2985,4.35550,2453.664,36.1978
2023-11-09T02:24:49,2420,42.8014,5.9826,13.2987,4.35548,2453.649,36.1974
2023-11-09T02:27:49,2420,42.8014,5.9826,13.2985,4.35510,2453.649,36.1941
2023-11-09T02:30:49,2420,42.8014,5.9826,13.2996,4.35519,2453.604,36.1939
2023-11-09T02:33:49,2420,42.8014,5.9826,13.2981,4.35537,2453.590,36.1970
2023-11-09T02:36:49,2420,42.8014,5.9826,13.2985,4.35545,2453.649,36.1973
2023-11-09T02:39:49,2420,42.8014,5.9826,13.2979,4.35544,2453.627,36.1978
2023-11-09T02:42:49,2420,42.8014,5.9826,13.2998,4.35605,2453.627,36.2017
2023-11-09T02:45:49,2420,42.8014,5.9826,13.2987,4.35582,2453.627,36.2006
2023-11-09T02:48:49,2420,42.8014,5.9826,13.2978,4.35521,2453.672,36.1957
2023-11-09T02:51:49,2420,42.8014,5.9826,13.2985,4.35577,2453.687,36.2003
2023-11-09T02:54:49,2420,42.8014,5.9826,13.2979,4.35545,2453.627,36.1979
2023-11-09T02:57:49,2420,42.8014,5.9826,13.2986,4.35540,2453.649,36.1967
2023-11-09T03:00:50,2420,42.8014,5.9826,13.2992,4.35542,2453.649,36.1963
2023-11-09T03:03:49,2420,42.8014,5.9826,13.2982,4.35325,2453.649,36.1771
2023-11-09T03:06:49,2420,42.8014,5.9826,13.2989,4.35463,2453.649,36.1893
2023-11-09T03:09:49,2420,42.8014,5.9826,13.2986,4.35476,2453.695,36.1908
2023-11-09T03:12:49,2420,42.8014,5.9826,13.2983,4.35558,2453.649,36.1988
2023-11-09T03:15:49,2420,42.8014,5.9826,13.2983,4.35482,2453.649,36.1917
2023-11-09T03:18:49,2420,42.8014,5.9826,13.2983,4.35495,2453.627,36.1929
2023-11-09T03:21:49,2420,42.8014,5.9826,13.2982,4.35504,2453.627,36.1938
2023-11-09T03:24:49,2420,42.8014,5.9826,13.2982,4.35513,2453.649,36.1947
2023-11-09T03:27:49,2420,42.8014,5.9826,13.2980,4.35559,2453.649,36.1991
2023-11-09T03:30:49,2420,42.8014,5.9826,13.2989,4.35440,2453.649,36.1871
2023-11-09T03:33:49,2420,42.8014,5.9826,13.2982,4.35515,2453.672,36.1948
2023-11-09T03:36:49,2420,42.8014,5.9826,13.2981,4.35534,2453.649,36.1967
2023-11-09T03:39:49,2420,42.8014,5.9826,13.2983,4.35549,2453.649,36.1979
2023-11-09T03:42:49,2420,42.8014,5.9826,13.2985,4.35612,2453.649,36.2036
2023-11-09T03:45:49,2420,42.8014,5.9826,13.2988,4.35581,2453.649,36.2003
2023-11-09T03:48:49,2420,42.8014,5.9826,13.2983,4.35483,2453.649,36.1917
2023-11-09T03:51:49,2420,42.8014,5.9826,13.2981,4.35507,2453.672,36.1941
2023-11-09T03:54:49,2420,42.8014,5.9826,13.2983,4.35476,2453.649,36.1911
2023-11-09T03:57:49,2420,42.8014,5.9826,13.2979,4.35600,2453.687,36.2030
2023-11-09T04:00:49,2420,42.8014,5.9826,13.2985,4.35514,2453.649,36.1945
2023-11-09T04:03:49,2420,42.8014,5.9826,13.2984,4.35443,2453.649,36.1879
2023-11-09T04:06:49,2420,42.8014,5.9826,13.2979,4.35501,2453.672,36.1937
2023-11-09T04:09:49,2420,42.8014,5.9826,13.2982,4.35488,2453.672,36.1923
2023-11-09T04:12:49,2420,42.8014,5.9826,13.2980,4.35413,2453.657,36.1855
2023-11-09T04:15:49,2420,42.8014,5.9826,13.2980,4.35495,2453.635,36.1931
2023-11-09T04:18:49,2420,42.8014,5.9826,13.2980,4.35540,2453.695,36.1973
2023-11-09T04:21:49,2420,42.8014,5.9826,13.2981,4.35440,2453.687,36.1879
2023-11-09T04:24:49,2420,42.8014,5.9826,13.2979,4.35552,2453.672,36.1985
2023-11-09T04:27:49,2420,42.8014,5.9826,13.2978,4.35513,2453.635,36.1950
2023-11-09T04:30:49,2420,42.8014,5.9826,13.2976,4.35374,2453.687,36.1822
2023-11-09T04:33:49,2420,42.8014,5.9826,13.2982,4.35432,2453.672,36.1870
2023-11-09T04:36:49,2420,42.8014,5.9826,13.2979,4.35445,2453.680,36.1885
2023-11-09T04:39:49,2420,42.8014,5.9826,13.2982,4.35536,2453.687,36.1968
2023-11-09T04:42:49,2420,42.8014,5.9826,13.2983,4.35509,2453.657,36.1941
2023-11-09T04:45:49,2420,42.8014,5.9826,13.2982,4.35550,2453.695,36.1980
2023-11-09T04:48:49,2420,42.8014,5.9826,13.2982,4.35550,2453.672,36.1981
2023-11-09T04:51:49,2420,42.8014,5.9826,13.2983,4.35465,2453.695,36.1900
2023-11-09T04:54:49,2420,42.8014,5.9826,13.2982,4.35477,2453.672,36.1913
2023-11-09T04:57:49,2420,42.8014,5.9826,13.2985,4.35533,2453.680,36.1962
2023-11-09T05:00:50,2420,42.8014,5.9826,13.2982,4.35505,2453.672,36.1939
2023-11-09T05:03:49,2420,42.8014,5.9826,13.2993,4.35558,2453.709,36.1978
2023-11-09T05:06:49,2420,42.8014,5.9826,13.2993,4.35511,2453.672,36.1934
2023-11-09T05:09:49,2420,42.8014,5.9826,13.2981,4.35448,2453.695,36.1887
2023-11-09T05:12:49,2420,42.8014,5.9826,13.2981,4.35448,2453.672,36.1886
2023-11-09T05:15:49,2420,42.8014,5.9826,13.2984,4.35456,2453.649,36.1891
2023-11-09T05:18:49,2420,42.8014,5.9826,13.2985,4.35485,2453.672,36.1917
2023-11-09T05:21:49,2420,42.8014,5.9826,13.2982,4.35464,2453.695,36.1901
2023-11-09T05:24:49,2420,42.8014,5.9826,13.2982,4.35438,2453.695,36.1876
2023-11-09T05:27:49,2420,42.8014,5.9826,13.2988,4.35469,2453.649,36.1900
2023-11-09T05:30:49,2420,42.8014,5.9826,13.2988,4.35451,2453.672,36.1883
2023-11-09T05:33:49,2420,42.8014,5.9826,13.2984,4.35487,2453.709,36.1920
2023-11-09T05:36:49,2420,42.8014,5.9826,13.2979,4.35508,2453.672,36.1944
2023-11-09T05:39:49,2420,42.8014,5.9826,13.2987,4.35439,2453.695,36.1872
2023-11-09T05:42:49,2420,42.8014,5.9826,13.2985,4.35475,2453.672,36.1908
2023-11-09T05:45:49,2420,42.8014,5.9826,13.2982,4.35530,2453.672,36.1962
2023-11-09T05:48:49,2420,42.8014,5.9826,13.2988,4.35466,2453.672,36.1897
2023-11-09T05:51:49,2420,42.8014,5.9826,13.2976,4.35446,2453.695,36.1889
2023-11-09T05:54:49,2420,42.8014,5.9826,13.2980,4.35553,2453.695,36.1985
2023-11-09T05:57:49,2420,42.8014,5.9826,13.2984,4.35496,2453.695,36.1928
2023-11-09T06:00:50,2420,42.8014,5.9826,13.2981,4.35509,2453.672,36.1943
2023-11-09T06:03:49,2420,42.8014,5.9826,13.2982,4.35517,2453.672,36.1950
2023-11-09T06:06:49,2420,42.8014,5.9826,13.2979,4.35501,2453.695,36.1937
2023-11-09T06:09:49,2420,42.8014,5.9826,13.2984,4.35523,2453.695,36.1953
2023-11-09T06:12:49,2420,42.8014,5.9826,13.2979,4.35464,2453.672,36.1903
2023-11-09T06:15:49,2420,42.8014,5.9826,13.2983,4.35479,2453.672,36.1913
2023-11-09T06:18:49,2420,42.8014,5.9826,13.2986,4.35508,2453.649,36.1938
2023-11-09T06:21:49,2420,42.8014,5.9826,13.2980,4.35443,2453.695,36.1883
2023-11-09T06:24:49,2420,42.8014,5.9826,13.2984,4.35462,2453.672,36.1897
2023-11-09T06:27:49,2420,42.8014,5.9826,13.2991,4.35496,2453.657,36.1922
2023-11-09T06:30:49,2420,42.8014,5.9826,13.2982,4.35511,2453.672,36.1945
2023-11-09T06:33:49,2420,42.8014,5.9826,13.2987,4.35526,2453.672,36.1953
2023-11-09T06:36:49,2420,42.8014,5.9826,13.2978,4.35476,2453.672,36.1915
2023-11-09T06:39:49,2420,42.8014,5.9826,13.2982,4.35505,2453.695,36.1939
2023-11-09T06:42:49,2420,42.8014,5.9826,13.2988,4.35493,2453.672,36.1922
2023-11-09T06:45:49,2420,42.8014,5.9826,13.2985,4.35539,2453.695,36.1968
2023-11-09T06:48:49,2420,42.8014,5.9826,13.2979,4.35429,2453.649,36.1871
2023-11-09T06:51:49,2420,42.8014,5.9826,13.2982,4.35479,2453.649,36.1915
2023-11-09T06:54:49,2420,42.8014,5.9826,13.2991,4.35522,2453.695,36.1947
2023-11-09T06:57:49,2420,42.8014,5.9826,13.2988,4.35503,2453.672,36.1931
2023-11-09T07:00:49,2420,42.8014,5.9826,13.2988,4.35456,2453.672,36.1887
2023-11-09T07:03:49,2420,42.8014,5.9826,13.2985,4.35445,2453.672,36.1881
2023-11-09T07:06:49,2420,42.8014,5.9826,13.2993,4.35537,2453.672,36.1959
2023-11-09T07:09:49,2420,42.8014,5.9826,13.2993,4.35505,2453.664,36.1929
2023-11-09T07:12:49,2420,42.8014,5.9826,13.2983,4.35452,2453.649,36.1888
2023-11-09T07:15:49,2420,42.8014,5.9826,13.2982,4.35492,2453.612,36.1927
2023-11-09T07:18:49,2420,42.8014,5.9826,13.2985,4.35411,2453.672,36.1848
2023-11-09T07:21:49,2420,42.8014,5.9826,13.2985,4.35504,2453.672,36.1935
2023-11-09T07:24:49,2420,42.8014,5.9826,13.2990,4.35463,2453.672,36.1892
2023-11-09T07:27:49,2420,42.8014,5.9826,13.2978,4.35440,2453.680,36.1881
2023-11-09T07:30:49,2420,42.8014,5.9826,13.2978,4.35485,2453.649,36.1924
2023-11-09T07:33:49,2420,42.8014,5.9826,13.2986,4.35431,2453.649,36.1865
2023-11-09T07:36:49,2420,42.8014,5.9826,13.2985,4.35457,2453.672,36.1891
2023-11-09T07:39:49,2420,42.8014,5.9826,13.2998,4.35482,2453.649,36.1902
2023-11-09T07:42:49,2420,42.8014,5.9826,13.2993,4.35396,2453.649,36.1827
2023-11-09T07:45:49,2420,42.8014,5.9826,13.2986,4.35436,2453.649,36.1870
2023-11-09T07:48:49,2420,42.8014,5.9826,13.2986,4.35442,2453.635,36.1876
2023-11-09T07:51:49,2420,42.8014,5.9826,13.2985,4.35432,2453.657,36.1868
2023-11-09T07:54:49,2420,42.8014,5.9826,13.2986,4.35464,2453.627,36.1897
2023-11-09T07:57:49,2420,42.8014,5.9826,13.2978,4.35421,2453.649,36.1864
2023-11-09T08:00:49,2420,42.8014,5.9826,13.2979,4.35391,2453.672,36.1835
2023-11-09T08:03:49,2420,42.8014,5.9826,13.2998,4.35419,2453.649,36.1843
2023-11-09T08:06:49,2420,42.8014,5.9826,13.2985,4.35347,2453.627,36.1789
2023-11-09T08:09:49,2420,42.8014,5.9826,13.2986,4.35410,2453.672,36.1846
2023-11-09T08:12:49,2420,42.8014,5.9826,13.2996,4.35456,2453.649,36.1879
2023-11-09T08:15:49,2420,42.8014,5.9826,13.2985,4.35425,2453.649,36.1861
2023-11-09T08:18:49,2420,42.8014,5.9826,13.2989,4.35427,2453.649,36.1859
2023-11-09T08:21:49,2420,42.8014,5.9826,13.2989,4.35460,2453.672,36.1890
2023-11-09T08:24:49,2420,42.8014,5.9826,13.2993,4.35494,2453.649,36.1918
2023-11-09T08:27:49,2420,42.8014,5.9826,13.2987,4.35423,2453.649,36.1857
2023-11-09T08:30:49,2420,42.8014,5.9826,13.2985,4.35386,2453.649,36.1825
2023-11-09T08:33:49,2420,42.8014,5.9826,13.2982,4.35447,2453.627,36.1885
2023-11-09T08:36:50,2420,42.8014,5.9826,13.2986,4.35450,2453.649,36.1883
2023-11-09T08:39:49,2420,42.8014,5.9826,13.2986,4.35422,2453.627,36.1857
2023-11-09T08:42:49,2420,42.8014,5.9826,13.2995,4.35558,2453.604,36.1976
2023-11-09T08:45:49,2420,42.8014,5.9826,13.3046,4.35486,2453.649,36.1861
2023-11-09T08:48:49,2420,42.8014,5.9826,13.3014,4.35447,2453.627,36.1855
2023-11-09T08:51:49,2420,42.8014,5.9826,13.3003,4.35458,2453.649,36.1875
2023-11-09T08:54:49,2420,42.8014,5.9826,13.3001,4.35434,2453.649,36.1854
2023-11-09T08:57:49,2420,42.8014,5.9826,13.2998,4.35545,2453.649,36.1962
2023-11-09T09:00:49,2420,42.8014,5.9826,13.3200,4.35454,2453.627,36.1688
2023-11-09T09:03:49,2420,42.8014,5.9826,13.3497,4.35445,2453.604,36.1403
2023-11-09T09:06:49,2420,42.8014,5.9826,13.3296,4.35456,2453.627,36.1601
2023-11-09T09:09:49,2420,42.8014,5.9826,13.3000,4.35482,2453.604,36.1901
2023-11-09T09:12:49,2420,42.8014,5.9826,13.3058,4.35399,2453.619,36.1770
2023-11-09T09:15:49,2420,42.8014,5.9826,13.3025,4.35448,2453.641,36.1845
2023-11-09T09:18:49,2420,42.8014,5.9826,13.3047,4.35437,2453.604,36.1815
2023-11-09T09:21:49,2420,42.8014,5.9826,13.3011,4.35436,2453.604,36.1848
2023-11-09T09:24:49,2420,42.8014,5.9826,13.3034,4.35385,2453.604,36.1779
2023-11-09T09:27:49,2420,42.8014,5.9826,13.3021,4.35428,2453.649,36.1830
2023-11-09T09:30:49,2420,42.8014,5.9826,13.3004,4.35436,2453.604,36.1854
2023-11-09T09:33:49,2420,42.8014,5.9826,13.3029,4.35490,2453.627,36.1882
2023-11-09T09:36:49,2420,42.8014,5.9826,13.3023,4.35488,2453.619,36.1885
2023-11-09T09:39:49,2420,42.8014,5.9826,13.3099,4.35451,2453.627,36.1779
2023-11-09T09:42:49,2420,42.8014,5.9826,13.3112,4.35414,2453.604,36.1733
2023-11-09T09:45:49,2420,42.8014,5.9826,13.3011,4.35443,2453.604,36.1853
2023-11-09T09:48:49,2420,42.8014,5.9826,13.4158,4.35481,2453.627,36.0824
2023-11-09T09:51:49,2420,42.8014,5.9826,13.3045,4.35437,2453.604,36.1817
2023-11-09T09:54:49,2420,42.8014,5.9826,13.3143,4.35405,2453.627,36.1695
2023-11-09T09:57:49,2420,42.8014,5.9826,13.3146,4.35427,2453.619,36.1713
2023-11-09T10:00:49,2420,42.8014,5.9826,13.3143,4.35482,2453.604,36.1768
2023-11-09T10:03:49,2420,42.8014,5.9826,13.3209,4.35469,2453.596,36.1693
2023-11-09T10:06:49,2420,42.8014,5.9826,13.3241,4.35476,2453.612,36.1670
2023-11-09T10:09:49,2420,42.8014,5.9826,13.3174,4.35378,2453.604,36.1642
2023-11-09T10:12:49,2420,42.8014,5.9826,13.3125,4.35416,2453.604,36.1722
2023-11-09T10:15:49,2420,42.8014,5.9826,13.3211,4.35523,2453.619,36.1742
2023-11-09T10:18:49,2420,42.8014,5.9826,13.3220,4.35498,2453.604,36.1711
2023-11-09T10:21:49,2420,42.8014,5.9826,13.3318,4.35444,2453.641,36.1569
2023-11-09T10:24:49,2420,42.8014,5.9826,13.3202,4.35475,2453.619,36.1706
2023-11-09T10:27:49,2420,42.8014,5.9826,13.3127,4.35458,2453.604,36.1760
2023-11-09T10:30:49,2420,42.8014,5.9826,13.3081,4.35499,2453.604,36.1841
2023-11-09T10:33:49,2420,42.8014,5.9826,13.3064,4.35469,2453.619,36.1829
2023-11-09T10:36:49,2420,42.8014,5.9826,13.3117,4.35467,2453.627,36.1778
2023-11-09T10:39:49,2420,42.8014,5.9826,13.3083,4.35447,2453.604,36.1791
2023-11-09T10:42:49,2420,42.8014,5.9826,13.3015,4.35414,2453.604,36.1823
2023-11-09T10:45:49,2420,42.8014,5.9826,13.2986,4.35363,2453.619,36.1802
2023-11-09T10:48:49,2420,42.8014,5.9826,13.2990,4.35328,2453.627,36.1766
2023-11-09T10:51:49,2420,42.8014,5.9826,13.2982,4.35456,2453.627,36.1893
2023-11-09T10:54:49,2420,42.8014,5.9826,13.2976,4.35391,2453.619,36.1837
2023-11-09T10:57:49,2420,42.8014,5.9826,13.2976,4.35368,2453.619,36.1817
2023-11-09T11:00:49,2420,42.8014,5.9826,13.2986,4.35338,2453.604,36.1780
2023-11-09T11:03:49,2420,42.8014,5.9826,13.2978,4.35320,2453.604,36.1771
2023-11-09T11:06:49,2420,42.8014,5.9826,13.2977,4.35430,2453.582,36.1874
2023-11-09T11:09:49,2420,42.8014,5.9826,13.2975,4.35427,2453.627,36.1873
2023-11-09T11:12:49,2420,42.8014,5.9826,13.2976,4.35375,2453.627,36.1823
2023-11-09T11:15:49,2420,42.8014,5.9826,13.2983,4.35409,2453.627,36.1848
2023-11-09T11:18:49,2420,42.8014,5.9826,13.2970,4.35359,2453.627,36.1814
2023-11-09T11:21:49,2420,42.8014,5.9826,13.2979,4.35344,2453.627,36.1792
2023-11-09T11:24:49,2420,42.8014,5.9826,13.2976,4.35305,2453.604,36.1757
2023-11-09T11:27:49,2420,42.8014,5.9826,13.2988,4.35332,2453.627,36.1771
2023-11-09T11:30:50,2420,42.8014,5.9826,13.2975,4.35279,2453.619,36.1734
2023-11-09T11:33:49,2420,42.8014,5.9826,13.2976,4.35299,2453.604,36.1752
2023-11-09T11:36:49,2420,42.8014,5.9826,13.2977,4.35294,2453.612,36.1747
2023-11-09T11:39:49,2420,42.8014,5.9826,13.2978,4.35356,2453.604,36.1804
2023-11-09T11:42:49,2420,42.8014,5.9826,13.2990,4.35253,2453.604,36.1695
2023-11-09T11:45:49,2420,42.8014,5.9826,13.2976,4.35338,2453.604,36.1789
2023-11-09T11:48:49,2420,42.8014,5.9826,13.2979,4.35294,2453.641,36.1744
2023-11-09T11:51:49,2420,42.8014,5.9826,13.2976,4.35302,2453.604,36.1754
2023-11-09T11:54:49,2420,42.8014,5.9826,13.2983,4.35225,2453.627,36.1676
2023-11-09T11:57:49,2420,42.8014,5.9826,13.2979,4.35399,2453.604,36.1843
2023-11-09T12:00:49,2420,42.8014,5.9826,13.2994,4.35320,2453.627,36.1755
2023-11-09T12:03:49,2420,42.8014,5.9826,13.3000,4.35297,2453.627,36.1728
2023-11-09T12:06:49,2420,42.8014,5.9826,13.2998,4.35331,2453.604,36.1761
2023-11-09T12:09:49,2420,42.8014,5.9826,13.2982,4.35329,2453.649,36.1775
2023-11-09T12:12:49,2420,42.8014,5.9826,13.2982,4.35304,2453.582,36.1751
2023-11-09T12:15:49,2420,42.8014,5.9826,13.2980,4.35242,2453.627,36.1695
2023-11-09T12:18:49,2420,42.8014,5.9826,13.2982,4.35294,2453.664,36.1742
2023-11-09T12:21:49,2420,42.8014,5.9826,13.2975,4.35325,2453.604,36.1777
2023-11-09T12:24:49,2420,42.8014,5.9826,13.2983,4.35319,2453.604,36.1764
2023-11-09T12:27:49,2420,42.8014,5.9826,13.2982,4.35271,2453.627,36.1720
2023-11-09T12:30:50,2420,42.8014,5.9826,13.2982,4.35325,2453.649,36.1771
2023-11-09T12:33:49,2420,42.8014,5.9826,13.2977,4.35305,2453.604,36.1757
2023-11-09T12:36:49,2420,42.8014,5.9826,13.2988,4.35283,2453.627,36.1727
2023-11-09T12:39:49,2420,42.8014,5.9826,13.2981,4.35322,2453.604,36.1769
2023-11-09T12:42:49,2420,42.8014,5.9826,13.2978,4.35294,2453.649,36.1745
2023-11-09T12:45:49,2420,42.8014,5.9826,13.2982,4.35280,2453.687,36.1729
2023-11-09T12:48:49,2420,42.8014,5.9826,13.2980,4.35302,2453.627,36.1751
2023-11-09T12:51:49,2420,42.8014,5.9826,13.2984,4.35315,2453.627,36.1760
2023-11-09T12:54:49,2420,42.8014,5.9826,13.2980,4.35250,2453.619,36.1703
2023-11-09T12:57:49,2420,42.8014,5.9826,13.2979,4.35324,2453.627,36.1773
2023-11-09T13:00:49,2420,42.8014,5.9826,13.2982,4.35273,2453.604,36.1722
2023-11-09T13:03:49,2420,42.8014,5.9826,13.2988,4.35226,2453.627,36.1673
2023-11-09T13:06:50,2420,42.8014,5.9826,13.2986,4.35277,2453.627,36.1722
2023-11-09T13:09:49,2420,42.8014,5.9826,13.2977,4.35301,2453.627,36.1753
2023-11-09T13:12:49,2420,42.8014,5.9826,13.2979,4.35256,2453.604,36.1709
2023-11-09T13:15:49,2420,42.8014,5.9826,13.2981,4.35292,2453.649,36.1741
2023-11-09T13:18:49,2420,42.8014,5.9826,13.2979,4.35306,2453.664,36.1756
2023-11-09T13:21:49,2420,42.8014,5.9826,13.2980,4.35312,2453.649,36.1760
2023-11-09T13:24:49,2420,42.8014,5.9826,13.2979,4.35268,2453.649,36.1720
2023-11-09T13:27:49,2420,42.8014,5.9826,13.2975,4.35351,2453.627,36.1801
2023-11-09T13:30:49,2420,42.8014,5.9826,13.2981,4.35299,2453.672,36.1747
2023-11-09T13:33:49,2420,42.8014,5.9826,13.2985,4.35295,2453.649,36.1740
2023-11-09T13:36:49,2420,42.8014,5.9826,13.2982,4.35313,2453.649,36.1760
2023-11-09T13:39:49,2420,42.8014,5.9826,13.2981,4.35347,2453.635,36.1792
2023-11-09T13:42:49,2420,42.8014,5.9826,13.2983,4.35313,2453.664,36.1758
2023-11-09T13:45:49,2420,42.8014,5.9826,13.2984,4.35312,2453.627,36.1757
2023-11-09T13:48:49,2420,42.8014,5.9826,13.2977,4.35299,2453.649,36.1751
2023-11-09T13:51:49,2420,42.8014,5.9826,13.2981,4.35331,2453.657,36.1777
2023-11-09T13:54:49,2420,42.8014,5.9826,13.2980,4.35298,2453.672,36.1747
2023-11-09T13:57:49,2420,42.8014,5.9826,13.2976,4.35269,2453.649,36.1724
2023-11-09T14:00:49,2420,42.8014,5.9826,13.2979,4.35302,2453.672,36.1752
2023-11-09T14:03:49,2420,42.8014,5.9826,13.2981,4.35355,2453.627,36.1800
2023-11-09T14:06:49,2420,42.8014,5.9826,13.2978,4.35233,2453.649,36.1688
2023-11-09T14:09:49,2420,42.8014,5.9826,13.2985,4.35271,2453.687,36.1717
2023-11-09T14:12:49,2420,42.8014,5.9826,13.2979,4.35256,2453.672,36.1709
2023-11-09T14:15:49,2420,42.8014,5.9826,13.2982,4.35288,2453.672,36.1736
2023-11-09T14:18:49,2420,42.8014,5.9826,13.2984,4.35288,2453.657,36.1734
2023-11-09T14:21:49,2420,42.8014,5.9826,13.2975,4.35367,2453.649,36.1816
2023-11-09T14:24:49,2420,42.8014,5.9826,13.2977,4.35343,2453.657,36.1792
2023-11-09T14:27:49,2420,42.8014,5.9826,13.2979,4.35339,2453.672,36.1786
2023-11-09T14:30:49,2420,42.8014,5.9826,13.2982,4.35323,2453.687,36.1769
2023-11-09T14:33:49,2420,42.8014,5.9826,13.2975,4.35328,2453.657,36.1780
2023-11-09T14:36:49,2420,42.8014,5.9826,13.2978,4.35362,2453.680,36.1809
2023-11-09T14:39:49,2420,42.8014,5.9826,13.2982,4.35348,2453.695,36.1792
2023-11-09T14:42:49,2420,42.8014,5.9826,13.2985,4.35342,2453.695,36.1784
2023-11-09T14:45:49,2420,42.8014,5.9826,13.2981,4.35341,2453.672,36.1786
2023-11-09T14:48:49,2420,42.8014,5.9826,13.2977,4.35319,2453.672,36.1770
2023-11-09T14:51:49,2420,42.8014,5.9826,13.2985,4.35340,2453.695,36.1782
2023-11-09T14:54:49,2420,42.8014,5.9826,13.2980,4.35300,2453.717,36.1749
2023-11-09T14:57:49,2420,42.8014,5.9826,13.2983,4.35308,2453.717,36.1754
2023-11-09T15:00:49,2420,42.8014,5.9826,13.2975,4.35320,2453.695,36.1773
2023-11-09T15:03:49,2420,42.8014,5.9826,13.2978,4.35333,2453.657,36.1782
2023-11-09T15:06:49,2420,42.8014,5.9826,13.2979,4.35334,2453.717,36.1781
2023-11-09T15:09:49,2420,42.8014,5.9826,13.2977,4.35334,2453.717,36.1783
2023-11-09T15:12:49,2420,42.8014,5.9826,13.2978,4.35284,2453.709,36.1736
2023-11-09T15:15:49,2420,42.8014,5.9826,13.2978,4.35271,2453.740,36.1723
2023-11-09T15:18:49,2420,42.8014,5.9826,13.2982,4.35266,2453.709,36.1715
2023-11-09T15:21:49,2420,42.8014,5.9826,13.2979,4.35340,2453.695,36.1787
2023-11-09T15:24:49,2420,42.8014,5.9826,13.2976,4.35367,2453.740,36.1815
2023-11-09T15:27:49,2420,42.8014,5.9826,13.2978,4.35339,2453.695,36.1787
2023-11-09T15:30:50,2420,42.8014,5.9826,13.2978,4.35352,2453.740,36.1799
2023-11-09T15:33:49,2420,42.8014,5.9826,13.2980,4.35362,2453.695,36.1806
2023-11-09T15:36:49,2420,42.8014,5.9826,13.2984,4.35366,2453.717,36.1807
2023-11-09T15:39:49,2420,42.8014,5.9826,13.2975,4.35273,2453.762,36.1728
2023-11-09T15:42:49,2420,42.8014,5.9826,13.2979,4.35325,2453.785,36.1773
2023-11-09T15:45:49,2420,42.8014,5.9826,13.2978,4.35328,2453.800,36.1776
2023-11-09T15:48:49,2420,42.8014,5.9826,13.2979,4.35311,2453.762,36.1760
2023-11-09T15:51:49,2420,42.8014,5.9826,13.2981,4.35346,2453.717,36.1791
2023-11-09T15:54:49,2420,42.8014,5.9826,13.2979,4.35234,2453.732,36.1689
2023-11-09T15:57:49,2420,42.8014,5.9826,13.2976,4.35334,2453.717,36.1785
2023-11-09T16:00:49,2420,42.8014,5.9826,13.2979,4.35254,2453.725,36.1706
2023-11-09T16:03:49,2420,42.8014,5.9826,13.2980,4.35281,2453.740,36.1731